JES3031 SABE-SAVC

Flight info

Callsign JES3031
Flight time 2h 6m
Altitude 38000
Route PTA8 GBE UP664 GATUD GATUD2U
Aircraft A320/M-SDE3FGHIRWY/LB1

Departure

Time 2026-04-22 12:26
Airport Aeroparque Jorge Newbery (SABE)

Arrival

Time 2026-04-22 14:32
Airport General Enrique Mosconi International Airport (SAVC)
Time Latitude Longitude Altitude Speed Heading
2026-04-22 12:00 -34.55627 -58.41631 26 ft 0 kts 34°
2026-04-22 12:16 -34.55635 -58.41637 17 ft 4 kts 33°
2026-04-22 12:16 -34.55658 -58.41654 37 ft 4 kts 24°
2026-04-22 12:17 -34.55682 -58.41661 30 ft 4 kts 334°
2026-04-22 12:17 -34.55697 -58.41643 29 ft 4 kts 304°
2026-04-22 12:17 -34.55707 -58.41625 29 ft 0 kts 304°
2026-04-22 12:19 -34.55703 -58.41632 30 ft 4 kts 304°
2026-04-22 12:19 -34.55670 -58.41688 27 ft 12 kts 305°
2026-04-22 12:20 -34.55620 -58.41779 26 ft 13 kts 304°
2026-04-22 12:20 -34.55650 -58.41862 27 ft 13 kts 192°
2026-04-22 12:20 -34.55716 -58.41793 27 ft 13 kts 122°
2026-04-22 12:20 -34.55761 -58.41693 25 ft 14 kts 115°
2026-04-22 12:21 -34.55805 -58.41587 25 ft 14 kts 116°
2026-04-22 12:21 -34.55850 -58.41478 29 ft 15 kts 117°
2026-04-22 12:21 -34.55898 -58.41366 27 ft 15 kts 117°
2026-04-22 12:21 -34.55953 -58.41254 29 ft 16 kts 128°
2026-04-22 12:22 -34.56022 -58.41147 28 ft 16 kts 127°
2026-04-22 12:22 -34.56092 -58.41033 26 ft 17 kts 125°
2026-04-22 12:22 -34.56162 -58.40907 26 ft 18 kts 117°
2026-04-22 12:22 -34.56186 -58.40805 28 ft 13 kts 122°
2026-04-22 12:23 -34.56240 -58.40708 29 ft 15 kts 124°
2026-04-22 12:23 -34.56303 -58.40596 29 ft 17 kts 124°
2026-04-22 12:23 -34.56374 -58.40492 25 ft 11 kts 171°
2026-04-22 12:23 -34.56413 -58.40466 28 ft 1 kts 136°
2026-04-22 12:24 -34.56423 -58.40455 26 ft 3 kts 136°
2026-04-22 12:24 -34.56445 -58.40431 27 ft 5 kts 137°
2026-04-22 12:24 -34.56479 -58.40395 25 ft 8 kts 140°
2026-04-22 12:24 -34.56530 -58.40389 29 ft 9 kts 216°
2026-04-22 12:25 -34.56559 -58.40441 26 ft 0 kts 311°
2026-04-22 12:25 -34.56558 -58.40444 26 ft 0 kts 303°
2026-04-22 12:25 -34.56553 -58.40452 28 ft 4 kts 304°
2026-04-22 12:25 -34.56444 -58.40650 28 ft 63 kts 303°
2026-04-22 12:26 -34.56074 -58.41312 29 ft 123 kts 304°
2026-04-22 12:26 -34.55514 -58.42301 241 ft 150 kts 302°
2026-04-22 12:26 -34.54911 -58.43340 857 ft 152 kts 300°
2026-04-22 12:26 -34.54235 -58.44356 1464 ft 164 kts 315°
2026-04-22 12:27 -34.53114 -58.44902 1888 ft 191 kts 349°
2026-04-22 12:27 -34.51723 -58.44569 2190 ft 220 kts 22°
2026-04-22 12:27 -34.50386 -58.43462 2477 ft 249 kts 50°
2026-04-22 12:27 -34.49703 -58.41468 2886 ft 269 kts 90°
2026-04-22 12:28 -34.50001 -58.39208 3533 ft 277 kts 110°
2026-04-22 12:28 -34.50561 -58.36944 4397 ft 283 kts 111°
2026-04-22 12:28 -34.51161 -58.34643 5259 ft 290 kts 111°
2026-04-22 12:28 -34.51769 -58.32281 6092 ft 296 kts 110°
2026-04-22 12:29 -34.52441 -58.29904 6892 ft 300 kts 120°
2026-04-22 12:29 -34.53677 -58.27890 7657 ft 297 kts 144°
2026-04-22 12:29 -34.55398 -58.26636 8428 ft 291 kts 167°
2026-04-22 12:29 -34.57381 -58.26266 9238 ft 282 kts 189°
2026-04-22 12:30 -34.61272 -58.26900 10543 ft 297 kts 194°
2026-04-22 12:30 -34.63394 -58.27279 10832 ft 317 kts 194°
2026-04-22 12:30 -34.65608 -58.27666 11435 ft 324 kts 194°
2026-04-22 12:31 -34.67621 -58.28011 12058 ft 327 kts 194°
2026-04-22 12:31 -34.69892 -58.28393 12782 ft 331 kts 194°
2026-04-22 12:31 -34.72180 -58.28773 13501 ft 334 kts 194°
2026-04-22 12:31 -34.74492 -58.29159 14176 ft 337 kts 194°
2026-04-22 12:32 -34.76825 -58.29551 14742 ft 340 kts 194°
2026-04-22 12:32 -34.81571 -58.30357 15898 ft 348 kts 194°
2026-04-22 12:32 -34.83985 -58.30770 16465 ft 352 kts 194°
2026-04-22 12:33 -34.86423 -58.31190 17037 ft 356 kts 194°
2026-04-22 12:33 -34.88899 -58.31613 17610 ft 361 kts 194°
2026-04-22 12:33 -34.91400 -58.32038 18185 ft 365 kts 194°
2026-04-22 12:33 -34.93926 -58.32469 18715 ft 368 kts 194°
2026-04-22 12:34 -34.96439 -58.32896 19230 ft 371 kts 194°
2026-04-22 12:34 -34.99010 -58.33338 19767 ft 374 kts 195°
2026-04-22 12:34 -35.01600 -58.33784 20306 ft 377 kts 195°
2026-04-22 12:34 -35.04212 -58.34233 20827 ft 380 kts 195°
2026-04-22 12:35 -35.06842 -58.34682 21341 ft 383 kts 195°
2026-04-22 12:35 -35.09495 -58.35132 21833 ft 386 kts 195°
2026-04-22 12:35 -35.12163 -58.35585 22324 ft 389 kts 195°
2026-04-22 12:35 -35.14849 -58.36046 22815 ft 391 kts 195°
2026-04-22 12:36 -35.17550 -58.36514 23315 ft 394 kts 195°
2026-04-22 12:36 -35.20272 -58.36985 23774 ft 396 kts 195°
2026-04-22 12:36 -35.23011 -58.37456 24181 ft 399 kts 195°
2026-04-22 12:36 -35.25770 -58.37928 24592 ft 401 kts 196°
2026-04-22 12:37 -35.28539 -58.38400 24995 ft 403 kts 196°
2026-04-22 12:37 -35.31330 -58.38879 25398 ft 406 kts 196°
2026-04-22 12:37 -35.34130 -58.39365 25799 ft 408 kts 197°
2026-04-22 12:37 -35.36947 -58.39856 26199 ft 410 kts 197°
2026-04-22 12:38 -35.39782 -58.40350 26598 ft 413 kts 197°
2026-04-22 12:38 -35.42633 -58.40843 26977 ft 415 kts 197°
2026-04-22 12:38 -35.44530 -58.41171 27233 ft 417 kts 197°
2026-04-22 12:38 -35.47409 -58.41667 27606 ft 419 kts 197°
2026-04-22 12:39 -35.50304 -58.42166 27979 ft 421 kts 197°
2026-04-22 12:39 -35.57093 -58.43347 28863 ft 427 kts 197°
2026-04-22 12:39 -35.60041 -58.43861 29244 ft 429 kts 197°
2026-04-22 12:40 -35.62044 -58.44210 29501 ft 431 kts 197°
2026-04-22 12:40 -35.65024 -58.44725 29879 ft 434 kts 197°
2026-04-22 12:40 -35.68019 -58.45243 30232 ft 436 kts 197°
2026-04-22 12:40 -35.71027 -58.45766 30541 ft 438 kts 197°
2026-04-22 12:41 -35.74989 -58.46640 30935 ft 433 kts 204°
2026-04-22 12:41 -35.76880 -58.47385 31132 ft 427 kts 210°
2026-04-22 12:41 -35.79608 -58.48777 31551 ft 424 kts 212°
2026-04-22 12:41 -35.82323 -58.50168 32010 ft 422 kts 212°
2026-04-22 12:42 -35.85036 -58.51549 32460 ft 421 kts 212°
2026-04-22 12:42 -35.87745 -58.52920 32906 ft 420 kts 212°
2026-04-22 12:42 -35.90446 -58.54291 33355 ft 419 kts 212°
2026-04-22 12:42 -35.93139 -58.55662 33809 ft 418 kts 212°
2026-04-22 12:43 -35.95822 -58.57028 34235 ft 417 kts 212°
2026-04-22 12:43 -35.98501 -58.58393 34600 ft 416 kts 212°
2026-04-22 12:43 -36.01176 -58.59762 34949 ft 415 kts 213°
2026-04-22 12:43 -36.03841 -58.61127 35285 ft 415 kts 213°
2026-04-22 12:44 -36.06506 -58.62495 35607 ft 414 kts 213°
2026-04-22 12:44 -36.09164 -58.63859 35922 ft 414 kts 213°
2026-04-22 12:44 -36.11827 -58.65221 36235 ft 414 kts 213°
2026-04-22 12:44 -36.14484 -58.66585 36535 ft 413 kts 213°
2026-04-22 12:45 -36.17139 -58.67952 36838 ft 413 kts 213°
2026-04-22 12:45 -36.19789 -58.69318 37132 ft 412 kts 213°
2026-04-22 12:45 -36.22402 -58.70666 37417 ft 412 kts 213°
2026-04-22 12:45 -36.25082 -58.72051 37708 ft 412 kts 213°
2026-04-22 12:46 -36.27726 -58.73417 37983 ft 412 kts 213°
2026-04-22 12:46 -36.33005 -58.76143 38086 ft 415 kts 213°
2026-04-22 12:47 -36.38334 -58.78896 38083 ft 415 kts 213°
2026-04-22 12:47 -36.43674 -58.81656 38084 ft 416 kts 212°
2026-04-22 12:48 -36.49024 -58.84426 38087 ft 417 kts 212°
2026-04-22 12:48 -36.54376 -58.87207 38088 ft 417 kts 212°
2026-04-22 12:49 -36.59741 -58.89997 38100 ft 418 kts 212°
2026-04-22 12:49 -36.65113 -58.92798 38104 ft 419 kts 212°
2026-04-22 12:50 -36.70493 -58.95605 38098 ft 419 kts 212°
2026-04-22 12:50 -36.75879 -58.98417 38104 ft 420 kts 212°
2026-04-22 12:51 -36.81239 -59.01209 38101 ft 420 kts 212°
2026-04-22 12:51 -36.86637 -59.04035 38115 ft 420 kts 212°
2026-04-22 12:52 -36.92029 -59.06866 38097 ft 421 kts 212°
2026-04-22 12:52 -36.97432 -59.09706 38088 ft 421 kts 212°
2026-04-22 12:53 -37.02837 -59.12554 38077 ft 422 kts 212°
2026-04-22 12:53 -37.08247 -59.15407 38070 ft 422 kts 212°
2026-04-22 12:54 -37.13656 -59.18261 38058 ft 422 kts 212°
2026-04-22 12:54 -37.19042 -59.21106 38054 ft 423 kts 211°
2026-04-22 12:55 -37.24153 -59.24515 38055 ft 408 kts 225°
2026-04-22 12:55 -37.28630 -59.28869 38054 ft 407 kts 225°
2026-04-22 12:56 -37.33108 -59.33231 38061 ft 408 kts 225°
2026-04-22 12:56 -37.37599 -59.37595 38072 ft 408 kts 225°
2026-04-22 12:57 -37.42093 -59.41970 38082 ft 409 kts 225°
2026-04-22 12:57 -37.46595 -59.46355 38095 ft 409 kts 225°
2026-04-22 12:58 -37.51097 -59.50752 38110 ft 409 kts 225°
2026-04-22 12:58 -37.55595 -59.55157 38116 ft 410 kts 225°
2026-04-22 12:59 -37.60100 -59.59570 38117 ft 410 kts 225°
2026-04-22 12:59 -37.64604 -59.63990 38114 ft 410 kts 225°
2026-04-22 13:00 -37.69106 -59.68418 38115 ft 411 kts 225°
2026-04-22 13:00 -37.73618 -59.72862 38115 ft 411 kts 225°
2026-04-22 13:01 -37.78098 -59.77276 38118 ft 411 kts 225°
2026-04-22 13:01 -37.82608 -59.81734 38120 ft 412 kts 225°
2026-04-22 13:02 -37.87127 -59.86201 38125 ft 412 kts 225°
2026-04-22 13:02 -37.91646 -59.90671 38129 ft 412 kts 225°
2026-04-22 13:03 -37.96161 -59.95158 38129 ft 412 kts 226°
2026-04-22 13:03 -38.00673 -59.99653 38133 ft 412 kts 225°
2026-04-22 13:04 -38.05189 -60.04146 38122 ft 412 kts 226°
2026-04-22 13:04 -38.09700 -60.08642 38123 ft 413 kts 226°
2026-04-22 13:05 -38.14211 -60.13151 38130 ft 413 kts 226°
2026-04-22 13:05 -38.18727 -60.17671 38117 ft 413 kts 226°
2026-04-22 13:06 -38.23248 -60.22195 38127 ft 414 kts 226°
2026-04-22 13:06 -38.27767 -60.26728 38128 ft 414 kts 226°
2026-04-22 13:07 -38.32290 -60.31275 38133 ft 414 kts 226°
2026-04-22 13:07 -38.36808 -60.35824 38131 ft 414 kts 226°
2026-04-22 13:08 -38.41329 -60.40378 38134 ft 414 kts 226°
2026-04-22 13:08 -38.45852 -60.44946 38136 ft 415 kts 226°
2026-04-22 13:09 -38.50346 -60.49489 38142 ft 415 kts 226°
2026-04-22 13:09 -38.54865 -60.54072 38135 ft 415 kts 226°
2026-04-22 13:10 -38.59383 -60.58670 38131 ft 415 kts 226°
2026-04-22 13:10 -38.63901 -60.63269 38127 ft 415 kts 226°
2026-04-22 13:11 -38.68418 -60.67874 38131 ft 415 kts 226°
2026-04-22 13:11 -38.72938 -60.72484 38130 ft 416 kts 226°
2026-04-22 13:12 -38.77465 -60.77110 38130 ft 416 kts 226°
2026-04-22 13:12 -38.81992 -60.81742 38132 ft 417 kts 226°
2026-04-22 13:13 -38.86520 -60.86384 38127 ft 417 kts 227°
2026-04-22 13:13 -38.91023 -60.91006 38123 ft 417 kts 227°
2026-04-22 13:14 -38.95562 -60.95671 38126 ft 418 kts 227°
2026-04-22 13:14 -39.00103 -61.00347 38128 ft 418 kts 227°
2026-04-22 13:15 -39.04640 -61.05035 38123 ft 419 kts 227°
2026-04-22 13:15 -39.09182 -61.09737 38127 ft 419 kts 227°
2026-04-22 13:16 -39.13730 -61.14438 38124 ft 419 kts 227°
2026-04-22 13:16 -39.18271 -61.19152 38122 ft 419 kts 227°
2026-04-22 13:17 -39.22818 -61.23877 38126 ft 420 kts 227°
2026-04-22 13:17 -39.27359 -61.28609 38123 ft 420 kts 227°
2026-04-22 13:18 -39.31897 -61.33353 38118 ft 420 kts 227°
2026-04-22 13:18 -39.36408 -61.38073 38114 ft 420 kts 227°
2026-04-22 13:19 -39.40957 -61.42828 38114 ft 420 kts 227°
2026-04-22 13:19 -39.45505 -61.47589 38114 ft 421 kts 228°
2026-04-22 13:20 -39.50049 -61.52361 38109 ft 421 kts 228°
2026-04-22 13:20 -39.54591 -61.57150 38107 ft 421 kts 228°
2026-04-22 13:21 -39.59138 -61.61941 38110 ft 421 kts 228°
2026-04-22 13:21 -39.63687 -61.66736 38106 ft 422 kts 228°
2026-04-22 13:22 -39.68239 -61.71544 38107 ft 422 kts 228°
2026-04-22 13:22 -39.72784 -61.76368 38105 ft 422 kts 228°
2026-04-22 13:23 -39.77332 -61.81204 38099 ft 422 kts 228°
2026-04-22 13:23 -39.81880 -61.86040 38098 ft 423 kts 228°
2026-04-22 13:24 -39.86434 -61.90891 38098 ft 423 kts 229°
2026-04-22 13:24 -39.90984 -61.95751 38095 ft 423 kts 229°
2026-04-22 13:25 -39.95531 -62.00619 38093 ft 423 kts 229°
2026-04-22 13:25 -40.00057 -62.05464 38089 ft 424 kts 229°
2026-04-22 13:26 -40.04611 -62.10354 38089 ft 424 kts 229°
2026-04-22 13:26 -40.09164 -62.15257 38084 ft 424 kts 229°
2026-04-22 13:27 -40.13718 -62.20165 38085 ft 425 kts 229°
2026-04-22 13:27 -40.18277 -62.25085 38084 ft 425 kts 229°
2026-04-22 13:28 -40.22842 -62.30015 38079 ft 426 kts 229°
2026-04-22 13:28 -40.27410 -62.34956 38074 ft 426 kts 229°
2026-04-22 13:29 -40.31971 -62.39916 38071 ft 426 kts 229°
2026-04-22 13:29 -40.36535 -62.44890 38074 ft 427 kts 229°
2026-04-22 13:30 -40.41105 -62.49865 38066 ft 427 kts 229°
2026-04-22 13:30 -40.45681 -62.54857 38068 ft 428 kts 229°
2026-04-22 13:31 -40.49483 -62.59010 38069 ft 428 kts 229°
2026-04-22 13:31 -40.54809 -62.64843 38064 ft 429 kts 229°
2026-04-22 13:32 -40.59390 -62.69876 38063 ft 429 kts 229°
2026-04-22 13:32 -40.63204 -62.74063 38056 ft 430 kts 229°
2026-04-22 13:33 -40.67792 -62.79119 38050 ft 430 kts 229°
2026-04-22 13:33 -40.72379 -62.84186 38045 ft 431 kts 229°
2026-04-22 13:34 -40.76974 -62.89274 38040 ft 431 kts 229°
2026-04-22 13:34 -40.81574 -62.94362 38038 ft 432 kts 229°
2026-04-22 13:35 -40.86170 -62.99469 38036 ft 433 kts 228°
2026-04-22 13:35 -40.91119 -63.04148 38034 ft 438 kts 223°
2026-04-22 13:36 -40.96135 -63.08743 38038 ft 439 kts 223°
2026-04-22 13:36 -41.01152 -63.13359 38039 ft 439 kts 223°
2026-04-22 13:37 -41.06170 -63.18005 38041 ft 440 kts 224°
2026-04-22 13:37 -41.12000 -63.23405 38042 ft 440 kts 223°
2026-04-22 13:38 -41.16205 -63.27314 38043 ft 440 kts 224°
2026-04-22 13:38 -41.23728 -63.34324 38042 ft 441 kts 223°
2026-04-22 13:39 -41.28720 -63.38971 38036 ft 441 kts 223°
2026-04-22 13:39 -41.33745 -63.43660 38036 ft 441 kts 223°
2026-04-22 13:40 -41.38771 -63.48362 38034 ft 442 kts 223°
2026-04-22 13:40 -41.43793 -63.53076 38032 ft 442 kts 223°
2026-04-22 13:41 -41.48818 -63.57802 38030 ft 442 kts 223°
2026-04-22 13:41 -41.53845 -63.62538 38025 ft 443 kts 223°
2026-04-22 13:42 -41.58882 -63.67291 38035 ft 443 kts 223°
2026-04-22 13:42 -41.63910 -63.72045 38024 ft 443 kts 223°
2026-04-22 13:43 -41.68940 -63.76811 38021 ft 443 kts 223°
2026-04-22 13:43 -41.73972 -63.81598 38027 ft 444 kts 223°
2026-04-22 13:44 -41.79005 -63.86383 38024 ft 444 kts 223°
2026-04-22 13:44 -41.84009 -63.91142 38024 ft 444 kts 223°
2026-04-22 13:45 -41.89039 -63.95949 38026 ft 444 kts 223°
2026-04-22 13:45 -41.94070 -64.00767 38031 ft 444 kts 223°
2026-04-22 13:46 -41.99098 -64.05589 38028 ft 444 kts 223°
2026-04-22 13:46 -42.04130 -64.10421 38031 ft 444 kts 223°
2026-04-22 13:47 -42.09161 -64.15259 38031 ft 445 kts 223°
2026-04-22 13:47 -42.14193 -64.20118 38029 ft 445 kts 223°
2026-04-22 13:48 -42.19224 -64.24983 38029 ft 445 kts 222°
2026-04-22 13:48 -42.24260 -64.29844 38020 ft 445 kts 222°
2026-04-22 13:49 -42.29264 -64.34683 38025 ft 445 kts 222°
2026-04-22 13:49 -42.34286 -64.39576 38025 ft 445 kts 223°
2026-04-22 13:50 -42.39307 -64.44481 38029 ft 445 kts 222°
2026-04-22 13:50 -42.44331 -64.49389 38028 ft 445 kts 222°
2026-04-22 13:51 -42.49350 -64.54302 38028 ft 445 kts 222°
2026-04-22 13:51 -42.54380 -64.59219 38027 ft 445 kts 222°
2026-04-22 13:52 -42.59244 -64.63997 38029 ft 445 kts 222°
2026-04-22 13:52 -42.64266 -64.68933 38021 ft 445 kts 222°
2026-04-22 13:53 -42.69283 -64.73876 38024 ft 445 kts 222°
2026-04-22 13:53 -42.74294 -64.78826 38024 ft 445 kts 222°
2026-04-22 13:54 -42.79307 -64.83791 38024 ft 446 kts 222°
2026-04-22 13:54 -42.84319 -64.88762 38024 ft 446 kts 222°
2026-04-22 13:55 -42.89078 -64.93491 38028 ft 446 kts 222°
2026-04-22 13:55 -42.94089 -64.98478 38026 ft 446 kts 222°
2026-04-22 13:56 -42.99062 -65.03450 38013 ft 446 kts 221°
2026-04-22 13:56 -43.04096 -65.08486 38000 ft 446 kts 221°
2026-04-22 13:57 -43.09071 -65.13465 37986 ft 446 kts 221°
2026-04-22 13:57 -43.14071 -65.18489 37973 ft 446 kts 221°
2026-04-22 13:58 -43.19066 -65.23525 37976 ft 446 kts 221°
2026-04-22 13:58 -43.24397 -65.27991 37984 ft 450 kts 215°
2026-04-22 13:59 -43.29837 -65.32264 37975 ft 450 kts 215°
2026-04-22 13:59 -43.35268 -65.36546 37990 ft 450 kts 215°
2026-04-22 14:00 -43.40692 -65.40832 37990 ft 449 kts 215°
2026-04-22 14:00 -43.46113 -65.45127 38007 ft 449 kts 215°
2026-04-22 14:01 -43.51523 -65.49413 38015 ft 449 kts 215°
2026-04-22 14:01 -43.56930 -65.53711 38018 ft 448 kts 215°
2026-04-22 14:02 -43.62330 -65.58016 38018 ft 448 kts 215°
2026-04-22 14:02 -43.67685 -65.62291 38016 ft 448 kts 215°
2026-04-22 14:03 -43.73109 -65.66631 38017 ft 447 kts 215°
2026-04-22 14:03 -43.78488 -65.70946 38012 ft 446 kts 215°
2026-04-22 14:04 -43.83814 -65.75225 38006 ft 446 kts 214°
2026-04-22 14:04 -43.89174 -65.79543 38008 ft 445 kts 215°
2026-04-22 14:05 -43.94525 -65.83868 38016 ft 445 kts 214°
2026-04-22 14:06 -44.02574 -65.90288 37379 ft 450 kts 212°
2026-04-22 14:06 -44.05383 -65.92357 36274 ft 463 kts 211°
2026-04-22 14:06 -44.08260 -65.94391 35594 ft 464 kts 210°
2026-04-22 14:06 -44.11143 -65.96400 35053 ft 462 kts 210°
2026-04-22 14:07 -44.14008 -65.98404 34590 ft 459 kts 210°
2026-04-22 14:07 -44.16835 -66.00413 34155 ft 454 kts 210°
2026-04-22 14:07 -44.19634 -66.02436 33683 ft 450 kts 211°
2026-04-22 14:07 -44.22391 -66.04452 33185 ft 445 kts 211°
2026-04-22 14:08 -44.25115 -66.06457 32681 ft 441 kts 211°
2026-04-22 14:08 -44.27816 -66.08445 32191 ft 437 kts 211°
2026-04-22 14:08 -44.30495 -66.10412 31712 ft 433 kts 211°
2026-04-22 14:08 -44.33149 -66.12355 31228 ft 429 kts 211°
2026-04-22 14:09 -44.35784 -66.14278 30748 ft 425 kts 211°
2026-04-22 14:09 -44.38392 -66.16183 30278 ft 421 kts 211°
2026-04-22 14:09 -44.40984 -66.18076 29772 ft 418 kts 211°
2026-04-22 14:09 -44.43541 -66.19954 29246 ft 413 kts 211°
2026-04-22 14:10 -44.46069 -66.21815 28756 ft 408 kts 211°
2026-04-22 14:10 -44.48568 -66.23655 28269 ft 404 kts 211°
2026-04-22 14:10 -44.51006 -66.25448 27867 ft 398 kts 211°
2026-04-22 14:10 -44.53442 -66.27246 27317 ft 395 kts 211°
2026-04-22 14:11 -44.55856 -66.29025 26937 ft 389 kts 211°
2026-04-22 14:11 -44.58246 -66.30788 26459 ft 386 kts 211°
2026-04-22 14:11 -44.60611 -66.32531 26056 ft 382 kts 212°
2026-04-22 14:11 -44.62951 -66.34259 25639 ft 378 kts 212°
2026-04-22 14:12 -44.65271 -66.35974 25220 ft 376 kts 212°
2026-04-22 14:12 -44.67573 -66.37684 24798 ft 373 kts 212°
2026-04-22 14:12 -44.69861 -66.39386 24373 ft 370 kts 212°
2026-04-22 14:12 -44.72131 -66.41078 23924 ft 368 kts 212°
2026-04-22 14:13 -44.74389 -66.42760 23500 ft 366 kts 212°
2026-04-22 14:13 -44.76634 -66.44426 23020 ft 363 kts 212°
2026-04-22 14:13 -44.78850 -66.46069 22604 ft 359 kts 212°
2026-04-22 14:13 -44.81049 -66.47697 22181 ft 354 kts 212°
2026-04-22 14:14 -44.83216 -66.49308 21761 ft 350 kts 212°
2026-04-22 14:14 -44.85357 -66.50907 21350 ft 346 kts 212°
2026-04-22 14:14 -44.87473 -66.52490 20944 ft 343 kts 212°
2026-04-22 14:14 -44.89572 -66.54063 20533 ft 340 kts 213°
2026-04-22 14:15 -44.91652 -66.55627 20124 ft 337 kts 212°
2026-04-22 14:15 -44.93715 -66.57175 19730 ft 335 kts 212°
2026-04-22 14:15 -44.95766 -66.58712 19325 ft 333 kts 213°
2026-04-22 14:15 -44.97807 -66.60239 18925 ft 331 kts 213°
2026-04-22 14:16 -44.99835 -66.61760 18506 ft 330 kts 213°
2026-04-22 14:16 -45.01862 -66.63282 18088 ft 329 kts 213°
2026-04-22 14:16 -45.03875 -66.64797 17655 ft 327 kts 213°
2026-04-22 14:16 -45.05850 -66.66283 17264 ft 324 kts 213°
2026-04-22 14:17 -45.07833 -66.67780 16868 ft 322 kts 213°
2026-04-22 14:17 -45.09804 -66.69267 16461 ft 320 kts 213°
2026-04-22 14:17 -45.11762 -66.70741 16070 ft 317 kts 212°
2026-04-22 14:17 -45.13703 -66.72202 15691 ft 315 kts 212°
2026-04-22 14:18 -45.15637 -66.73662 15295 ft 313 kts 213°
2026-04-22 14:18 -45.17552 -66.75111 14912 ft 311 kts 212°
2026-04-22 14:18 -45.19458 -66.76556 14532 ft 310 kts 212°
2026-04-22 14:18 -45.21357 -66.77997 14152 ft 309 kts 212°
2026-04-22 14:19 -45.23247 -66.79430 13768 ft 307 kts 212°
2026-04-22 14:19 -45.25131 -66.80858 13353 ft 306 kts 212°
2026-04-22 14:19 -45.27001 -66.82272 12972 ft 303 kts 212°
2026-04-22 14:19 -45.28854 -66.83676 12600 ft 301 kts 212°
2026-04-22 14:20 -45.32488 -66.86438 11864 ft 296 kts 212°
2026-04-22 14:20 -45.34297 -66.87814 11497 ft 294 kts 212°
2026-04-22 14:20 -45.36089 -66.89180 11133 ft 292 kts 212°
2026-04-22 14:21 -45.39645 -66.91897 10400 ft 288 kts 211°
2026-04-22 14:21 -45.41408 -66.93246 10047 ft 286 kts 211°
2026-04-22 14:22 -45.44852 -66.95876 9562 ft 274 kts 211°
2026-04-22 14:22 -45.46516 -66.97146 9007 ft 268 kts 211°
2026-04-22 14:22 -45.49145 -66.99155 8431 ft 249 kts 211°
2026-04-22 14:23 -45.50669 -67.00321 8114 ft 248 kts 211°
2026-04-22 14:23 -45.52623 -67.01825 7707 ft 247 kts 211°
2026-04-22 14:23 -45.53622 -67.02594 7501 ft 247 kts 211°
2026-04-22 14:23 -45.54988 -67.03642 7214 ft 246 kts 211°
2026-04-22 14:24 -45.56982 -67.05171 6813 ft 245 kts 211°
2026-04-22 14:24 -45.58484 -67.06327 6491 ft 245 kts 211°
2026-04-22 14:24 -45.59498 -67.07109 6262 ft 245 kts 211°
2026-04-22 14:24 -45.61478 -67.08638 5885 ft 242 kts 211°
2026-04-22 14:25 -45.62451 -67.09389 5803 ft 237 kts 211°
2026-04-22 14:25 -45.63894 -67.10500 5669 ft 229 kts 211°
2026-04-22 14:25 -45.65273 -67.11560 5536 ft 221 kts 211°
2026-04-22 14:25 -45.66591 -67.12573 5341 ft 216 kts 211°
2026-04-22 14:26 -45.67934 -67.13608 4969 ft 218 kts 211°
2026-04-22 14:26 -45.69256 -67.14627 4745 ft 214 kts 212°
2026-04-22 14:26 -45.70574 -67.15645 4273 ft 219 kts 212°
2026-04-22 14:26 -45.71915 -67.16686 3924 ft 218 kts 212°
2026-04-22 14:27 -45.73219 -67.17693 3827 ft 206 kts 213°
2026-04-22 14:27 -45.74364 -67.18783 3704 ft 191 kts 229°
2026-04-22 14:27 -45.75034 -67.20353 3537 ft 183 kts 252°
2026-04-22 14:27 -45.75269 -67.21931 3339 ft 181 kts 257°
2026-04-22 14:28 -45.75494 -67.23630 3115 ft 179 kts 258°
2026-04-22 14:28 -45.75719 -67.25334 2871 ft 168 kts 258°
2026-04-22 14:28 -45.75926 -67.26889 2673 ft 150 kts 258°
2026-04-22 14:28 -45.76111 -67.28284 2470 ft 134 kts 259°
2026-04-22 14:29 -45.76280 -67.29555 2300 ft 127 kts 259°
2026-04-22 14:29 -45.76444 -67.30791 2119 ft 125 kts 259°
2026-04-22 14:29 -45.76606 -67.32011 1938 ft 125 kts 260°
2026-04-22 14:29 -45.76767 -67.33222 1773 ft 123 kts 261°
2026-04-22 14:30 -45.76926 -67.34427 1608 ft 123 kts 259°
2026-04-22 14:30 -45.77085 -67.35625 1440 ft 122 kts 259°
2026-04-22 14:30 -45.77201 -67.36511 1308 ft 124 kts 261°
2026-04-22 14:30 -45.77361 -67.37720 1132 ft 125 kts 261°
2026-04-22 14:31 -45.77505 -67.38809 978 ft 125 kts 261°
2026-04-22 14:31 -45.77641 -67.39866 853 ft 125 kts 261°
2026-04-22 14:31 -45.77798 -67.41043 640 ft 127 kts 261°
2026-04-22 14:31 -45.77966 -67.42273 502 ft 127 kts 261°
2026-04-22 14:32 -45.78124 -67.43516 334 ft 126 kts 262°
2026-04-22 14:32 -45.78285 -67.44745 220 ft 125 kts 261°
2026-04-22 14:32 -45.78425 -67.45819 204 ft 90 kts 259°
2026-04-22 14:32 -45.78484 -67.46273 202 ft 22 kts 259°
2026-04-22 14:33 -45.78512 -67.46472 202 ft 21 kts 258°
2026-04-22 14:33 -45.78537 -67.46659 208 ft 14 kts 260°
2026-04-22 14:33 -45.78550 -67.46767 208 ft 9 kts 258°
2026-04-22 14:33 -45.78594 -67.46815 205 ft 10 kts 173°
2026-04-22 14:34 -45.78673 -67.46807 203 ft 12 kts 176°
2026-04-22 14:34 -45.78763 -67.46801 202 ft 8 kts 180°
2026-04-22 14:34 -45.78830 -67.46800 203 ft 11 kts 178°
2026-04-22 14:34 -45.78891 -67.46797 200 ft 8 kts 178°
2026-04-22 14:35 -45.78925 -67.46796 199 ft 4 kts 185°
2026-04-22 14:35 -45.78945 -67.46816 210 ft 1 kts 222°
2026-04-22 14:35 -45.78950 -67.46822 210 ft 0 kts 222°
2026-04-22 14:46 -45.78949 -67.46822 196 ft 0 kts 222°
2026-04-22 14:54 -45.78949 -67.46821 196 ft 0 kts 222°